Location: Wildlife_Club
(35.6000°N, 81.4330°W)
Time: 12:22:27
(UTC-04:00)

Transit 4A - Pass Details

Date: 16 June 2019
Orbit: 862 x 982 km, 66.8° (Epoch: 21 July)

Event Time Altitude Azimuth Distance (km) Brightness Sun altitude
Rises 21:50:39 0° 308° (NW) 3,664 13.2 -12.0°
Reaches altitude 10° 21:55:31 10° 275° (W) 2,686 11.2 -12.8°
Maximum altitude 21:57:09 11° 260° (W) 2,597 10.8 -13.0°
Drops below altitude 10° 21:58:46 10° 245° (WSW) 2,662 10.6 -13.3°
Sets 22:03:32 0° 211° (SSW) 3,566 10.8 -14.0°
